Flag for Sweden Weather past 2 weeks in Linköping, Sweden

Now
64 °F

Partly sunny.


Feels Like: 64 °F
Forecast: 48 / 57 °F
Wind: 3 mph from Northwest

Location: Linkoping / Saab

Current Time: Sep 20, 2014 at 2:01:10 PM

Latest Report: Sep 20, 2014 at 1:20 PM


Visibility: N/A

Pressure: 29.95 "Hg

Humidity: 78%

Dew point: 57 °F

Location of LinköpingLocation

Historic Weather in Linköping — Graph

°F

Linköping temperature yesterday

Maximum temperature yesterday: 68 °F (at 4:20 PM)
Minimum temperature yesterday: 46 °F (at 12:20 AM)
Average temperature yesterday: 55 °F

Past Weeks' High & Low Weather Summary

 TemperatureHumidityPressure
High72 °F (Sep 6, 1:50 PM)100% (Sep 6, 1:20 AM)30.45 "Hg (Sep 6, 1:20 AM)
Low39 °F (Sep 17, 6:20 AM)43% (Sep 6, 6:20 PM)29.77 "Hg (Sep 9, 5:50 AM)
Average56 °F86%30.16 "Hg
* Reported Sep 5 12:20 PM — Sep 20 12:20 PM, Linköping, Weather by CustomWeather, © 2014

Note: Actual official high and low records may vary slightly from our data, if they occured in-between our weather recording intervals... More about our weather records

Advertising

Linköping weather history for previous 24 hours

 ConditionsComfort  
Time TempWeatherWind HumidityBarometerVisibility
12:20 PM
Sep 20
61 °FScattered clouds.2 mph83%29.98 "HgN/A
11:50 AM61 °FScattered clouds.5 mph83%29.98 "HgN/A
11:20 AM59 °FPassing clouds.3 mph88%29.98 "HgN/A
10:50 AM59 °FScattered clouds.5 mph82%29.98 "HgN/A
10:20 AM57 °FPartly sunny.5 mph88%29.98 "HgN/A
9:50 AM57 °FPartly sunny.5 mph88%29.98 "HgN/A
9:20 AM55 °FPartly sunny.5 mph88%29.98 "HgN/A
8:50 AM55 °FPartly sunny.5 mph88%29.98 "Hg6 mi
8:20 AM55 °FLow clouds.6 mph88%30.01 "Hg6 mi
7:50 AM54 °FLow clouds.6 mph94%30.01 "Hg5 mi
7:20 AM54 °FLow clouds.5 mph94%30.01 "Hg5 mi
6:50 AM54 °FFog.5 mph94%30.01 "Hg5 mi
6:20 AM54 °FFog.6 mph94%30.01 "Hg5 mi
5:50 AM54 °FFog.5 mph100%30.01 "Hg5 mi
5:20 AM54 °FFog.5 mph100%30.01 "Hg4 mi
4:50 AM54 °FFog.3 mph100%30.01 "Hg4 mi
4:20 AM55 °FFog.3 mph94%30.01 "Hg4 mi
3:50 AM55 °FFog.3 mph94%30.01 "Hg4 mi
3:20 AM55 °FFog.2 mph100%30.01 "Hg4 mi
2:50 AM55 °FFog.2 mph100%30.01 "Hg4 mi
2:20 AM55 °FFog.2 mph100%30.01 "Hg3 mi
1:50 AM55 °FFog.3 mph100%30.04 "Hg3 mi
1:20 AM54 °FLow clouds.5 mph100%30.04 "Hg3 mi
12:50 AM54 °FDense fog.5 mph100%30.04 "Hg1 mi
12:20 AM54 °FFog.5 mph100%30.04 "Hg0 mi
11:50 PM
Sep 19
54 °FFog.3 mph100%30.04 "Hg0 mi
11:20 PM54 °FFog.6 mph100%30.04 "Hg0 mi
10:50 PM54 °FFog.5 mph100%30.04 "Hg1 mi
10:20 PM54 °FFog.1 mph100%30.04 "Hg4 mi
9:50 PM54 °FFog.No wind94%30.04 "HgN/A
9:20 PM55 °FFog.No wind94%30.04 "HgN/A
8:50 PM55 °FFog.3 mph88%30.04 "HgN/A
8:20 PM57 °FClear.3 mph88%30.04 "Hg10 mi
7:50 PM57 °FSunny.5 mph88%30.04 "Hg10 mi
7:20 PM59 °FSunny.6 mph82%30.04 "Hg10 mi
6:50 PM61 °FSunny.6 mph77%30.04 "Hg10 mi
6:20 PM63 °FSunny.7 mph73%30.04 "Hg10 mi
5:50 PM64 °FSunny.7 mph68%30.04 "Hg10 mi
5:20 PM66 °FSunny.7 mph64%30.04 "Hg10 mi
4:50 PM66 °FPassing clouds.7 mph60%30.04 "HgN/A
4:20 PM68 °FPassing clouds.6 mph56%30.04 "HgN/A
3:50 PM66 °FPassing clouds.6 mph64%30.04 "HgN/A
3:20 PM66 °FPassing clouds.7 mph64%30.07 "HgN/A
2:50 PM66 °FPassing clouds.5 mph64%30.07 "HgN/A
2:20 PM64 °FPassing clouds.5 mph73%30.07 "HgN/A
Weather by CustomWeather, © 2014

See weather overviewHow to use our weather pages